Hourly Data Report for January 27, 2003

SHERBROOKE A
QUEBEC

45°26'00.000" N
71°41'00.000" W
241.40 m
7028124
71610
YSC

Download Data

Hourly Data (January 2003)
Hourly Data Report for January 27, 2003
TIME
LST
Temp Definition
°C
Dew Point Definition
°C
Rel Hum Definition
%
Precip. Amount Definition
mm

Wind Dir Definition
10's deg

Wind Spd Definition
km/h
Visibility Definition
km
Stn Press Definition
kPa
Hmdx Definition


Wind Chill Definition


Weather Definition


00:00 -12.3 -16.1 73   31 9 5.6 98.87   -18 Snow
01:00 -13.3 -17.3 72   31 9 6.4 98.86   -19 Snow
02:00 -14.2 -18.6 69   31 9 15.0 98.93   -20  
03:00 -14.9 -19.2 70   30 9 15.0 98.96   -21  
04:00 -15.8 -19.4 74   29 13 15.0 98.99   -23  
05:00 -16.9 -20.6 73   28 13 15.0 99.05   -25  
06:00 -18.2 -21.5 75   29 13 15.0 99.11   -26  
07:00 -20.6 -24.0 74   28 11 15.0 99.26   -28  
08:00 -22.0 -27.1 63   27 15 24.1 99.36   -32 Mainly Clear
09:00 -22.3 -27.9 60   26 17 24.1 99.44   -33 Mainly Clear
10:00 -22.0 -28.8 54   27 13 24.1 99.50   -31 Mainly Clear
11:00 -21.3 -28.7 51   29 20 24.1 99.48   -32 Mainly Clear
12:00 -20.8 -28.5 50   30 20 24.1 99.46   -31 Mainly Clear
13:00 -20.5 -28.1 51   26 20 24.1 99.46   -31 Mainly Clear
14:00 -20.3 -28.7 47   28 19 24.1 99.51   -31 Mainly Clear
15:00 -20.5 -29.2 46   29 24 24.1 99.57   -32 Mainly Clear
16:00 -21.3 -30.3 44   28 19 24.1 99.59   -32 Mainly Clear
17:00 -22.9 -30.9 48   27 13 24.1 99.63   -32 Clear
18:00 -23.4 -30.0 55   26 13 15.0 99.66   -33  
19:00 -24.1 -30.5 55   24 9 15.0 99.70   -32  
20:00 -24.6 -30.8 56   22 9 15.0 99.71   -32  
21:00 -25.5 -31.1 59   21 7 15.0 99.68   -32  
22:00 -27.9 -33.1 61   20 7 15.0 99.66   -35  
23:00 -27.3 -32.7 60   20 7 15.0 99.63   -34  

Notes on Data Quality.

Legend

  • E = Estimated
  • M = Missing
  • NA = Not Available*
  • [empty] = Indicates an unobserved value
Date modified: